User: anonymous   Login
Location: Caltech
(34.1382°N, 118.1253°W)
Time: 12:18:55
(UTC-07:00)
Language:

CZ-4B DEB - Orbit

View from above orbital plane
View from above orbital plane
View from above satellite
View from above satellite

Ground track
Ground track

The orbit data is extracted from the following two-line orbital elements,

1 27433U 02024D   18171.47313945  .00000036  00000-0  44335-4 0  9993
2 27433  99.0105 150.6334 0015933  91.5207 268.7789 14.12268466829154
Epoch (UTC): 20 June 2018 11:21:19
Eccentricity: 0.0015933
inclination: 99.0105°
perigee height: 840 km
apogee height: 863 km
right ascension of ascending node: 150.6334°
argument of perigee: 91.5207°
revolutions per day: 14.12268466
mean anomaly at epoch: 268.7789°
orbit number at epoch: 82915

The dashed part of the orbit path shows where the satellite is in the earth's shadow,  

DLR